When you browse on this site, cookies collect data to enhance your experience and personalize the content and advertising you see.
Visit our Privacy Policy to learn more. By continuing to use the site, you agree to this use of cookies and data.
EN

Hourly Weather Kujawki

Today, 8 August, Saturday

Time Temperature Precipitation Wind Pressure Humidity
00:00 +22°C° 0 mm 3 mps 758 mmHg 79%
01:00 +22°C° 0 mm 3 mps 758 mmHg 77%
02:00 +21°C° 0 mm 3 mps 758 mmHg 79%
03:00 +21°C° 0 mm 2 mps 758 mmHg 82%
04:00 +21°C° 0 mm 2 mps 758 mmHg 84%
05:00 +23°C° 0 mm 2 mps 758 mmHg 81%
06:00 +24°C° 0 mm 2 mps 758 mmHg 78%
07:00 +25°C° 0 mm 2 mps 758 mmHg 74%
08:00 +27°C° 0 mm 2 mps 758 mmHg 68%
09:00 +29°C° 0 mm 2 mps 758 mmHg 62%
10:00 +30°C° 0 mm 2 mps 758 mmHg 55%
11:00 +31°C° 0 mm 2 mps 758 mmHg 51%
12:00 +32°C° 0 mm 2 mps 758 mmHg 47%
13:00 +32°C° 0 mm 2 mps 757 mmHg 43%
14:00 +32°C° 0 mm 2 mps 757 mmHg 43%
15:00 +32°C° 0 mm 2 mps 757 mmHg 43%
16:00 +32°C° 0 mm 2 mps 757 mmHg 43%
17:00 +31°C° 0 mm 2 mps 756 mmHg 49%
18:00 +29°C° 0 mm 2 mps 756 mmHg 54%
19:00 +28°C° 0 mm 2 mps 756 mmHg 60%
20:00 +27°C° 0.2 mm 2 mps 756 mmHg 64%
21:00 +26°C° 0.2 mm 2 mps 756 mmHg 67%
22:00 +25°C° 0.2 mm 2 mps 756 mmHg 71%
23:00 +24°C° 0.2 mm 1 mps 756 mmHg 73%

Tomorrow, 9 August, Sunday

Time Temperature Precipitation Wind Pressure Humidity
00:00 +24°C° 0.2 mm 1 mps 756 mmHg 75%
01:00 +23°C° 0.2 mm 1 mps 756 mmHg 77%
02:00 +23°C° 0.2 mm 1 mps 756 mmHg 78%
03:00 +23°C° 0.2 mm 1 mps 756 mmHg 80%
04:00 +22°C° 0.2 mm 1 mps 756 mmHg 81%
05:00 +23°C° 0 mm 1 mps 756 mmHg 77%
06:00 +25°C° 0 mm 1 mps 756 mmHg 74%
07:00 +26°C° 0 mm 1 mps 756 mmHg 70%
08:00 +27°C° 0 mm 1 mps 756 mmHg 64%
09:00 +29°C° 0 mm 1 mps 756 mmHg 59%
10:00 +30°C° 0 mm 1 mps 756 mmHg 53%
11:00 +31°C° 0 mm 1 mps 756 mmHg 50%
12:00 +32°C° 0 mm 1 mps 756 mmHg 46%
13:00 +32°C° 0 mm 1 mps 755 mmHg 42%
14:00 +32°C° 0 mm 2 mps 755 mmHg 43%
15:00 +32°C° 0 mm 2 mps 755 mmHg 44%
16:00 +32°C° 0 mm 2 mps 755 mmHg 46%
17:00 +30°C° 0 mm 2 mps 755 mmHg 50%
18:00 +29°C° 0 mm 2 mps 755 mmHg 55%
19:00 +28°C° 0 mm 1 mps 754 mmHg 60%
20:00 +27°C° 0.3 mm 2 mps 755 mmHg 64%
21:00 +25°C° 0.3 mm 2 mps 755 mmHg 68%
22:00 +24°C° 0.3 mm 2 mps 755 mmHg 72%
23:00 +24°C° 0.4 mm 2 mps 755 mmHg 75%

Day after tomorrow, 10 August, Monday

Time Temperature Precipitation Wind Pressure Humidity
00:00 +23°C° 0.4 mm 2 mps 755 mmHg 79%
01:00 +23°C° 0.4 mm 2 mps 755 mmHg 83%
02:00 +21°C° 0 mm 2 mps 755 mmHg 85%
03:00 +21°C° 0 mm 2 mps 755 mmHg 87%
04:00 +21°C° 0 mm 2 mps 755 mmHg 88%
05:00 +21°C° 0 mm 2 mps 755 mmHg 86%
06:00 +23°C° 0 mm 2 mps 755 mmHg 84%
07:00 +23°C° 0 mm 2 mps 755 mmHg 82%
08:00 +25°C° 0 mm 3 mps 755 mmHg 75%
09:00 +26°C° 0 mm 3 mps 755 mmHg 68%
10:00 +28°C° 0 mm 3 mps 755 mmHg 61%
11:00 +29°C° 0 mm 3 mps 755 mmHg 55%
12:00 +30°C° 0 mm 3 mps 755 mmHg 50%
13:00 +30°C° 0 mm 3 mps 755 mmHg 45%
14:00 +30°C° 0 mm 3 mps 755 mmHg 44%
15:00 +30°C° 0 mm 3 mps 755 mmHg 44%
16:00 +31°C° 0 mm 3 mps 755 mmHg 43%
17:00 +29°C° 0 mm 3 mps 754 mmHg 49%
18:00 +28°C° 0 mm 2 mps 754 mmHg 55%
19:00 +26°C° 0 mm 2 mps 754 mmHg 61%
20:00 +25°C° 0 mm 2 mps 755 mmHg 65%
21:00 +24°C° 0 mm 3 mps 755 mmHg 68%
22:00 +22°C° 0 mm 3 mps 755 mmHg 72%
23:00 +21°C° 0 mm 3 mps 755 mmHg 75%

11 August, Tuesday

Time Temperature Precipitation Wind Pressure Humidity
00:00 +21°C° 0 mm 3 mps 755 mmHg 77%
01:00 +20°C° 0 mm 2 mps 756 mmHg 80%
02:00 +19°C° 0 mm 2 mps 756 mmHg 81%
03:00 +19°C° 0 mm 2 mps 756 mmHg 83%
04:00 +19°C° 0 mm 2 mps 756 mmHg 84%
05:00 +20°C° 0 mm 2 mps 756 mmHg 81%
06:00 +21°C° 0 mm 2 mps 756 mmHg 77%
07:00 +23°C° 0 mm 2 mps 756 mmHg 74%
08:00 +24°C° 0 mm 2 mps 756 mmHg 67%
09:00 +26°C° 0 mm 2 mps 756 mmHg 59%
10:00 +28°C° 0 mm 2 mps 757 mmHg 52%
11:00 +28°C° 0 mm 2 mps 756 mmHg 48%
12:00 +29°C° 0 mm 2 mps 756 mmHg 45%
13:00 +30°C° 0 mm 2 mps 756 mmHg 41%
14:00 +30°C° 0 mm 2 mps 756 mmHg 41%
15:00 +30°C° 0 mm 2 mps 756 mmHg 41%
16:00 +30°C° 0 mm 2 mps 756 mmHg 41%
17:00 +28°C° 0 mm 3 mps 756 mmHg 46%
18:00 +26°C° 0 mm 4 mps 756 mmHg 51%
19:00 +25°C° 0 mm 4 mps 756 mmHg 57%
20:00 +22°C° 0 mm 4 mps 756 mmHg 59%
21:00 +21°C° 0 mm 4 mps 756 mmHg 62%
22:00 +20°C° 0 mm 4 mps 757 mmHg 65%
23:00 +19°C° 0 mm 4 mps 757 mmHg 68%

12 August, Wednesday

Time Temperature Precipitation Wind Pressure Humidity
00:00 +18°C° 0 mm 3 mps 757 mmHg 71%
01:00 +17°C° 0 mm 3 mps 757 mmHg 73%
02:00 +17°C° 0 mm 3 mps 757 mmHg 74%
03:00 +16°C° 0 mm 3 mps 757 mmHg 76%
04:00 +16°C° 0 mm 3 mps 757 mmHg 77%
05:00 +17°C° 0 mm 3 mps 757 mmHg 73%
06:00 +17°C° 0 mm 3 mps 757 mmHg 70%
07:00 +18°C° 0 mm 3 mps 758 mmHg 66%
08:00 +20°C° 0 mm 3 mps 758 mmHg 60%
09:00 +22°C° 0 mm 3 mps 758 mmHg 54%
10:00 +23°C° 0 mm 4 mps 758 mmHg 48%
11:00 +25°C° 0 mm 3 mps 757 mmHg 45%
12:00 +26°C° 0 mm 3 mps 757 mmHg 43%
13:00 +26°C° 0 mm 3 mps 757 mmHg 41%
14:00 +26°C° 0 mm 3 mps 757 mmHg 41%
15:00 +27°C° 0 mm 3 mps 757 mmHg 41%
16:00 +27°C° 0 mm 3 mps 756 mmHg 40%
17:00 +25°C° 0 mm 3 mps 756 mmHg 46%
18:00 +24°C° 0 mm 3 mps 756 mmHg 52%
19:00 +21°C° 0 mm 3 mps 756 mmHg 57%
20:00 +20°C° 0 mm 3 mps 756 mmHg 59%
21:00 +19°C° 0 mm 3 mps 756 mmHg 60%
22:00 +18°C° 0 mm 3 mps 756 mmHg 62%
23:00 +17°C° 0 mm 3 mps 756 mmHg 64%

13 August, Thursday

Time Temperature Precipitation Wind Pressure Humidity
00:00 +16°C° 0 mm 2 mps 756 mmHg 67%
01:00 +16°C° 0 mm 2 mps 756 mmHg 69%
02:00 +15°C° 0 mm 2 mps 756 mmHg 72%
03:00 +15°C° 0 mm 2 mps 756 mmHg 75%
04:00 +14°C° 0 mm 2 mps 755 mmHg 78%
05:00 +14°C° 0 mm 3 mps 755 mmHg 76%
06:00 +16°C° 0 mm 3 mps 755 mmHg 73%
07:00 +18°C° 0 mm 3 mps 755 mmHg 71%
08:00 +19°C° 0 mm 3 mps 755 mmHg 64%
09:00 +21°C° 0 mm 3 mps 755 mmHg 57%
10:00 +24°C° 0 mm 3 mps 755 mmHg 50%
11:00 +25°C° 0 mm 3 mps 755 mmHg 46%
12:00 +26°C° 0 mm 3 mps 755 mmHg 43%
13:00 +27°C° 0 mm 3 mps 755 mmHg 39%
14:00 +27°C° 0 mm 3 mps 754 mmHg 39%
15:00 +27°C° 0 mm 3 mps 754 mmHg 39%
16:00 +27°C° 0 mm 3 mps 754 mmHg 39%
17:00 +25°C° 0 mm 3 mps 754 mmHg 44%
18:00 +24°C° 0 mm 3 mps 754 mmHg 50%
19:00 +21°C° 0 mm 3 mps 754 mmHg 56%
20:00 +20°C° 0 mm 3 mps 754 mmHg 57%
21:00 +19°C° 0 mm 3 mps 754 mmHg 59%
22:00 +18°C° 0 mm 3 mps 754 mmHg 60%
23:00 +18°C° 0 mm 3 mps 754 mmHg 62%
Show more